Regional Weather Roundup
Issued by NWS

Home | Current Version | Previous Version | Graphics & Text | Print | Product List | Glossary On
Versions: 1 2 3 4 5 6 7 8 9 10 11 12 13 14 15 16 17 18 19 20 21 22 23 24 25 26 27 28 29 30 31 32 33 34 35 36 37 38 39 40 41 42 43 44 45 46 47 48 49 50
000
ASUS43 KMPX 051810
RWRMN
WEATHER ROUNDUP FOR MINNESOTA
NATIONAL WEATHER SERVICE TWIN CITIES/CHANHASSEN MN
100 PM CDT SUN JUL 05 2015


NOTE: "FAIR" INDICATES FEW OR NO CLOUDS BELOW 12,000 FEET WITH NO
SIGNIFICANT WEATHER AND/OR OBSTRUCTIONS TO VISIBILITY. N/A MEANS
CURRENT SKY AND/OR WEATHER CONDITIONS ARE NOT AVAILABLE.

MNZ060>063-068>070-051900-
   Twin Cities Metro

CITY           SKY/WX    TMP DP  RH WIND       PRES   REMARKS
TWIN CITIES    CLOUDY    82  66  58 S17       29.88R
6HR MIN TEMP:  68; 6HR MAX TEMP:  82;

ST PAUL        CLOUDY    81  68  64 S15       29.89R
CRYSTAL        CLOUDY    83  66  56 S12G21    29.87R
BLAINE         CLOUDY    82  64  54 S16       29.87
LAKEVILLE      CLOUDY    79  66  65 S9G16     29.89S
EDEN PRAIRIE   CLOUDY    84  69  60 S13       29.87R
6HR MIN TEMP:  67; 6HR MAX TEMP:  84;

SOUTH ST PAUL  CLOUDY    82  65  57 S15       29.89S
LAKE ELMO      FAIR      81  68  65 S15       29.91R
$$
MNZ001>005-007-008-013>017-022>024-027-028-051900-
   Northwest Minnesota

CITY           SKY/WX    TMP DP  RH WIND       PRES   REMARKS
BEMIDJI        CLOUDY    81  68  64 SW8       29.80R
HALLOCK        TSTM      66  64  94 E8        29.75F
ROSEAU         TSTM      66  61  82 SW5       29.80R
WARROAD        TSTM      66  63  88 SE6       29.77F
THIEF RVR FALL CLOUDY    66  64  94 NW14      29.82R
CROOKSTON      CLOUDY    66  64  94 N13       29.78F
FOSSTON        CLOUDY    75  66  73 W9        29.83R
DETROIT LAKES  CLOUDY    82  64  54 S14       29.82R
MOORHEAD       CLOUDY    82  72  69 W9        29.77R
PARK RAPIDS    PTSUNNY   86  66  51 SW12      29.81R
MAHNOMEN       CLOUDY    78  68  71 W12G17    29.81R
$$
MNZ006-009>011-018-025>026-051900-
   North Central Minnesota

CITY           SKY/WX    TMP DP  RH WIND       PRES   REMARKS
BAUDETTE       CLOUDY    72  67  84 S6        29.76F
FLAG ISLAND    TSTM      70  64  83 CALM      29.75S
INTL FALLS     CLOUDY    79  68  69 S6        29.78F
6HR MIN TEMP:  64; 6HR MAX TEMP:  79;

WASKISH        CLOUDY    75  70  83 W5        29.79R
BIG FORK       CLOUDY    81  68  65 S9G16     29.80F
LONGVILLE      MOSUNNY   82  68  61 S7        29.82R
GRAND RAPIDS   PTSUNNY   81  64  57 S12G17    29.83S
CRANE LAKE     CLOUDY    77  64  65 S3        29.83S
ORR            CLOUDY    79  64  61 S6        29.80S
COOK           CLOUDY    81  66  61 S12       29.83S
WALKER         FAIR      82  67  61 SW8       29.81R
$$
MNZ012-019>021-037-051900-
   Northeast Minnesota

CITY           SKY/WX    TMP DP  RH WIND       PRES   REMARKS
DULUTH         MOSUNNY   80  65  59 S14       29.88S
6HR MIN TEMP:  59; 6HR MAX TEMP:  80;

ELY            MOSUNNY   81  63  54 SW12      29.85S
HIBBING        PTSUNNY   81  66  60 S8        29.83F
DULUTH HARBOR  MOSUNNY   70  64  83 NE6       29.86S
TWO HARBORS    SUNNY     81  68  65 S13G21    29.86S
SILVER BAY     MOSUNNY   81  63  54 S12G18    29.86F
GRAND MARAIS     N/A     58  50  75 E6        29.90S
G MARAIS ARPRT MOSUNNY   72  57  60 S12G17    29.93S
$$
MNZ029>031-032-039>041-046>048-054>057-064-051900-
   West Central Minnesota

CITY           SKY/WX    TMP DP  RH WIND       PRES   REMARKS
FERGUS FALLS   PTSUNNY   82  66  57 SW12      29.78S
WHEATON        PTSUNNY   84  66  54 S9        29.78F
MORRIS         MOSUNNY   84  66  54 S9        29.79S
ALEXANDRIA     MOSUNNY   83  66  56 S7        29.85R
ELBOW LAKE     FAIR      82  68  63 S13       29.80S
WADENA         PTSUNNY   84  64  51 S13       29.81S
GLENWOOD       MOSUNNY   82  64  54 S12G17    29.84S
APPLETON       MOSUNNY   88  66  48 SE8       29.79S HX  90
BENSON         MOSUNNY   84  64  51 S9        29.81S
ORTONVILLE     MOSUNNY   88  64  45 S9        29.78R
MADISON        MOSUNNY   88  64  45 S6        29.79R
WILLMAR          N/A     84  68  58 S6        29.84S
$$
MNZ033>034-036-042>043-049>051-058-059-051900-
   Central Minnesota

CITY           SKY/WX    TMP DP  RH WIND       PRES   REMARKS
ST CLOUD       MOSUNNY   81  66  60 S13       29.87R
6HR MIN TEMP:  63; 6HR MAX TEMP:  82;

SAUK CENTRE    FAIR      82  67  61 S15       29.84F
PAYNESVILLE    SUNNY     80  66  63 SE9       29.86R
AITKIN         MOSUNNY   81  70  69 S9        29.83F
PINE RIVER       N/A     84  66  54 S8        29.85S
BRAINERD       MOSUNNY   82  65  56 S16       29.84S
STAPLES        MOSUNNY   82  64  54 S13       29.83R
LONG PRAIRIE   FAIR      79  66  65 SE14      29.84F
LITTLE FALLS   MOSUNNY   81  63  54 S9G17     29.86R
LITCHFIELD     MOSUNNY   82  70  65 S8        29.86F
BUFFALO        PTSUNNY   80  65  61 S12       29.89S
MAPLE LAKE     PTSUNNY   81  70  69 SE6       29.88S
$$
MNZ037-044-045-052-053-051900-
   East Central Minnesota

CITY           SKY/WX    TMP DP  RH WIND       PRES   REMARKS
PRINCETON      PTSUNNY   82  66  57 SE15G22   29.88R
MORA           MOSUNNY   79  63  57 S12       29.89R
CAMBRIDGE      FAIR      84  66  54 S5        29.87R
RUSH CITY      MOSUNNY   80  66  63 S12G18    29.89R
MOOSE LAKE     PTSUNNY   79  64  61 S9        29.85F
HINCKLEY       FAIR      81  66  61 S12       29.88S
CLOQUET        MOSUNNY   79  63  57 S13G20    29.88R
MCGREGOR       MOSUNNY   81  66  61 S12G18    29.85S
$$
MNZ071>073-080-081-089-090-097-098-051900-
   Southwest Minnesota

CITY           SKY/WX    TMP DP  RH WIND       PRES   REMARKS
MONTEVIDEO     PTSUNNY   86  70  58 S8        29.81R HX  90
GRANITE FALLS  MOSUNNY   83  68  60 SE12G17   29.83R
CANBY          MOSUNNY   86  64  47 S6G21     29.80R
MARSHALL       PTSUNNY   84  64  51 SW14G23   29.81
REDWOOD FALLS  MOSUNNY   85  67  54 S15       29.83F
OLIVIA         SUNNY     81  64  57 S14       29.84S
PIPESTONE      MOSUNNY   82  66  57 S16       29.83S
WINDOM         MOSUNNY   81  66  61 S8        29.86F
WORTHINGTON    MOSUNNY   82  66  57 S15G21    29.85S
JACKSON        PTSUNNY   81  68  65 S14G20    29.88F
TRACY          PTSUNNY   83  69  61 SE12      29.84S
SLAYTON        MOSUNNY   83  65  55 S17       29.85S
$$
MNZ065>067-074>077-082>085-091>093-051900-
   South Central Minnesota

CITY           SKY/WX    TMP DP  RH WIND       PRES   REMARKS
MANKATO        PTSUNNY   81  66  61 S18G25    29.88S
NEW ULM        PTSUNNY   81  68  65 S14       29.87S
ST JAMES       PTSUNNY   82  70  65 S18       29.88F
FAIRMONT       PTSUNNY   79  64  61 S14G21    29.89R
GLENCOE        PTSUNNY   82  70  68 S12       29.87F
FARIBAULT      CLOUDY    81  68  65 S15       29.91S
OWATONNA       CLOUDY    81  66  61 S15       29.92S
WASECA         PTSUNNY   79  68  69 S14G20    29.92S
ALBERT LEA     CLOUDY    81  66  61 S13       29.92F
$$
MNZ078>079-086>088-094>096-051900-
   Southeast Minnesota

CITY           SKY/WX    TMP DP  RH WIND       PRES   REMARKS
ROCHESTER      CLOUDY    81  66  60 S14G22    29.97S
6HR MIN TEMP:  61; 6HR MAX TEMP:  81;

RED WING       CLOUDY    82  64  54 S8        29.90F
STANTON        CLOUDY    81  66  61 S14G22    29.89F
DODGE CENTER   CLOUDY    79  68  69 S16       29.95S
WINONA         PTSUNNY   81  63  54 S5        29.96F
AUSTIN         CLOUDY    81  66  61 S13G18    29.94F
PRESTON        CLOUDY    78  65  65 S13       29.99S
$$
ABBREVIATIONS USED IN REMARKS
   TC - TEMPERATURES IN CELSIUS
  WCI - WIND CHILL INDEX
   HX - HEAT INDEX
  VSB - VISIBILITY
$$



USA.gov is the U.S. government's official web portal to all federal, state and local government web resources and services.